User: anonymous   Login
Location: Hertford
(51.8000°N, 0.0667°W)
Time: 12:04:02
(UTC+00:00)
Language:

Spot 2 Rocket - Orbit

View from above orbital plane
View from above orbital plane
View from above satellite
View from above satellite

Ground track
Ground track

The orbit data is extracted from the following two-line orbital elements,

1 20443U 90005H   21166.90760925  .00000023  00000-0  22267-4 0  9999
2 20443  98.5284 233.1729 0009951 346.5596  13.5325 14.38129614644350
Epoch (UTC): 15 June 2021 21:46:57
Eccentricity: 0.0009951
inclination: 98.5284°
perigee height: 757 km
apogee height: 772 km
right ascension of ascending node: 233.1729°
argument of perigee: 346.5596°
revolutions per day: 14.38129614
mean anomaly at epoch: 13.5325°
orbit number at epoch: 64435

The dashed part of the orbit path shows where the satellite is in the earth's shadow,  

DLR